Weather History for Durango, CO

Change the Weather History Date:

Thursday, December 13, 2012

  Actual Average Record
Temperature  
Mean Temperature 30 °F 27 °F  
Max Temperature 49 °F 39 °F 56 °F (1988)
Min Temperature 10 °F 14 °F 1 °F (1985)
Degree Days  
Heating Degree Days 35 38  
Month to date heating degree days 445 477  
Since 1 July heating degree days 1894 2150  
Cooling Degree Days 0 0  
Month to date cooling degree days 0 0  
Year to date cooling degree days 477 243  
Moisture  
Dew Point 11 °F    
Average Humidity 49    
Maximum Humidity 76    
Minimum Humidity 21    
Precipitation  
Precipitation 0.00 in 0.03 in 0.71 in (1975)
Month to date precipitation T 0.43  
Year to date precipitation 6.91 15.33  
Sea Level Pressure  
Sea Level Pressure 30.15 in    
Wind  
Wind Speed 4 mph (ENE)    
Max Wind Speed 12 mph    
Max Gust Speed 15 mph    
Visibility 10 miles    
Events      
T = Trace of Precipitation, MM = Missing Value Source: NWS Daily Summary

Daily Weather History Graph

Daily Weather History Graph

Search for Another Location

Airport:

Trip Planner

Search our weather history database for the weather conditions in past years. The results will help you decide how hot, cold, wet, or windy it might be!

Date:

Astronomy

Dec. 13, 2012 Rise Set
Actual Time 7:16 AM MST 4:54 PM MST
Civil Twilight 6:47 AM MST 5:23 PM MST
Nautical Twilight 6:14 AM MST 5:56 PM MST
Astronomical Twilight 5:43 AM MST 6:27 PM MST
Moon 7:28 AM MST (12/13) 5:39 PM MST (12/13)
Length of Visible Light 10h 36m
Length of Day
9h 38m
New Moon, 0% of the Moon is Illuminated
Dec 13
New Moon
Dec 19
First Quarter
Dec 28
Full
Jan 4
Last Quarter
Jan 11
New

Hourly Weather History & Observations

Time (MST) Temp. Windchill Dew Point Humidity Pressure Visibility Wind Dir Wind Speed Gust Speed Precip Events Conditions
12:53 AM 23.0 °F 18.4 °F 10.9 °F 60% 30.17 in 10.0 mi NE 3.5 mph - N/A   Clear
1:53 AM 18.0 °F 11.1 °F 9.0 °F 68% 30.20 in 10.0 mi NE 4.6 mph - N/A   Clear
2:53 AM 16.0 °F 8.8 °F 8.1 °F 71% 30.20 in 10.0 mi ENE 4.6 mph - N/A   Clear
3:53 AM 17.1 °F 10.0 °F 9.0 °F 71% 30.19 in 10.0 mi NNE 4.6 mph - N/A   Clear
4:53 AM 14.0 °F - 7.0 °F 74% 30.26 in 10.0 mi Calm Calm - N/A   Clear
5:53 AM 14.0 °F - 7.0 °F 74% 30.24 in 10.0 mi Calm Calm - N/A   Clear
6:53 AM 10.0 °F - 5.0 °F 80% 30.29 in 10.0 mi Calm Calm - N/A   Clear
7:53 AM 18.0 °F - 10.0 °F 71% 30.26 in 10.0 mi Calm Calm - N/A   Clear
8:53 AM 25.0 °F - 12.0 °F 58% 30.25 in 10.0 mi Calm Calm - N/A   Clear
9:53 AM 32.0 °F 26.4 °F 14.0 °F 48% 30.22 in 10.0 mi East 5.8 mph - N/A   Clear
10:53 AM 39.0 °F 36.8 °F 14.0 °F 36% 30.19 in 10.0 mi Variable 3.5 mph - N/A   Clear
11:53 AM 45.0 °F 42.6 °F 10.0 °F 24% 30.10 in 10.0 mi East 4.6 mph - N/A   Clear
12:53 PM 46.9 °F - 9.0 °F 21% 30.06 in 10.0 mi ESE 4.6 mph - N/A   Clear
1:53 PM 48.0 °F - 10.9 °F 22% 30.05 in 10.0 mi East 5.8 mph - N/A   Clear
2:53 PM 48.0 °F - 12.0 °F 24% 30.04 in 10.0 mi Variable 4.6 mph - N/A   Clear
4:53 PM 36.0 °F 30.3 °F 10.9 °F 36% 30.10 in 10.0 mi ENE 6.9 mph - N/A   Clear
6:53 PM 34.0 °F 31.0 °F 12.0 °F 40% 30.13 in 10.0 mi East 3.5 mph - N/A   Mostly Cloudy
7:53 PM 30.9 °F 27.5 °F 12.9 °F 47% 30.10 in 10.0 mi East 3.5 mph - N/A   Mostly Cloudy
8:53 PM 30.0 °F 21.7 °F 12.9 °F 49% 30.07 in 10.0 mi ENE 9.2 mph - N/A   Overcast
9:53 PM 30.9 °F 23.5 °F 14.0 °F 50% 30.02 in 10.0 mi NE 8.1 mph - N/A   Overcast
11:53 PM 30.9 °F 24.3 °F 12.9 °F 47% 29.91 in 10.0 mi ENE 6.9 mph - N/A   Mostly Cloudy